Dewpoint
35 31 30 29 28 27 27 26 25 25 25 25 28 27 24 23 23 24 25 25 24 23 23 23 23 23 24 24 23 24 24 24 22 24 26 26 26 26 26 27 28 29 29 36 36 36 36 38 37 36 37 39 38 39 41 43 43 44 44 44 42 43 43 42 42 41 40 38 37 36 34 33 33 33 33 33 33 33 33 35 35 36 37 39 39 40
30 30 30 30 28 26 26 27 26 25 26 25 26 27 24 28 24 25 25 25 25 24 24 24 24 25 25 25 25 23 24 23 23 25 25 26 26 27 28 29 29 28 34 35 34 34 36 37 39 38 37 39 40 38 40 41 41 42 43 42 41 41 40 40 40 39 38 37 36 34 32 31 31 32 31 31 30 31 33 32 32 32 33 34 35 36
30 29 29 29 28 28 27 26 25 25 26 27 25 26 27 26 28 26 25 25 24 24 23 24 24 24 24 25 26 24 24 23 23 25 25 26 27 28 29 29 29 30 32 32 32 34 35 38 37 37 37 37 37 37 38 40 41 41 41 41 40 40 40 40 38 38 36 35 35 33 32 30 29 30 30 30 29 29 28 29 29 29 30 31 31 32
30 31 29 28 28 27 27 26 25 26 27 26 27 27 26 29 28 26 25 25 24 24 25 26 25 25 26 27 27 28 26 26 31 30 32 28 27 27 27 28 29 29 31 31 31 32 34 37 37 37 36 36 37 37 36 37 38 39 39 39 39 38 38 38 37 36 35 34 33 32 31 31 29 28 28 27 25 25 26 26 26 27 27 28 27 28
28 27 28 28 28 27 26 26 26 25 25 30 30 28 27 28 28 27 24 25 25 25 26 25 26 26 27 27 27 28 28 28 29 29 29 32 32 30 32 31 30 28 30 30 31 31 32 34 35 36 35 37 37 37 37 36 35 37 38 38 38 37 36 35 34 33 33 32 31 30 30 29 28 27 25 23 21 21 22 22 23 23 25 26 25 26
27 27 29 27 29 27 28 26 28 30 25 27 31 29 27 27 26 25 26 26 25 28 26 26 27 28 29 29 29 27 27 27 27 28 28 28 30 31 29 30 30 32 31 31 30 31 33 33 34 35 36 36 35 35 34 35 35 37 37 37 37 37 35 34 34 33 32 31 30 29 28 26 24 22 21 19 17 17 18 19 21 23 23 24 24 25
28 28 31 29 29 32 30 28 30 29 28 28 27 29 27 26 27 27 27 29 27 27 28 27 27 26 28 27 25 26 26 26 27 27 27 28 28 28 28 29 29 30 30 31 31 32 32 33 35 35 35 35 33 33 33 34 35 36 37 37 37 36 36 37 36 34 32 32 31 29 28 26 23 20 20 18 17 16 16 18 18 20 22 23 23 24
31 27 30 32 29 31 31 27 30 28 28 27 35 33 29 27 28 29 29 30 29 33 31 27 28 27 28 29 30 25 25 25 26 26 27 27 27 26 26 28 29 29 29 31 30 31 32 33 34 33 33 32 32 32 32 33 34 35 35 35 35 34 34 34 32 32 31 29 28 27 26 23 21 20 19 18 16 17 17 15 15 17 19 22 22 23
30 32 32 32 32 30 29 30 33 30 28 31 34 34 31 28 30 31 31 30 31 29 28 27 31 26 26 28 28 26 26 26 25 26 26 26 26 26 27 27 28 28 30 30 31 31 31 32 32 30 30 29 30 32 32 32 32 33 32 32 32 31 30 30 29 29 29 28 27 25 23 21 21 19 19 17 18 18 17 17 16 14 15 17 22 22
32 35 31 31 32 29 33 31 31 30 28 36 35 33 33 33 32 32 30 31 30 28 27 29 29 27 26 29 26 27 26 25 25 26 26 26 26 26 26 27 27 27 30 30 30 30 31 30 29 29 28 28 30 30 31 31 31 31 30 29 29 28 27 27 27 27 27 26 24 23 23 22 19 18 17 18 18 18 19 17 16 15 14 14 15 18
30 31 37 32 31 32 30 31 35 35 33 34 33 32 32 32 32 30 30 28 28 26 27 29 29 27 26 30 28 27 28 26 25 25 25 26 27 25 26 27 28 27 29 29 29 29 29 29 28 27 27 27 29 29 29 31 30 30 29 27 26 25 24 24 25 26 26 25 24 23 23 22 21 21 20 17 17 16 16 15 15 14 16 15 14 15
31 30 34 34 31 31 30 33 33 34 35 34 32 31 31 30 28 28 29 28 27 27 29 29 29 28 26 27 29 26 24 24 24 24 24 25 25 26 26 26 26 27 28 28 27 27 27 26 26 26 25 27 28 28 29 30 30 29 28 26 25 24 24 24 25 25 26 25 25 25 24 23 22 21 21 18 18 17 17 15 13 12 14 14 16 16
34 33 33 35 35 30 34 31 30 33 34 34 30 30 29 29 26 25 26 24 25 26 24 25 30 28 26 27 26 23 24 24 26 25 25 25 25 26 26 26 26 28 28 27 27 27 27 27 26 26 25 26 27 28 29 29 29 27 26 25 24 23 23 23 24 25 26 26 25 25 24 24 22 22 21 20 19 19 17 15 14 14 13 14 16 16
32 37 34 36 33 32 33 30 29 29 29 29 29 29 29 28 28 26 26 26 25 26 23 23 28 26 26 25 27 27 25 25 27 29 29 26 26 26 26 27 26 28 28 28 28 28 27 27 27 26 25 26 27 26 27 27 27 26 25 24 23 23 23 23 23 23 23 23 23 23 23 23 21 21 21 19 18 18 17 18 15 13 13 15 17 18
29 31 33 34 32 33 32 32 32 32 29 28 33 31 30 29 28 26 26 25 26 25 22 26 25 24 24 24 24 25 26 26 27 28 30 28 27 27 27 28 28 27 27 27 28 28 27 27 27 26 26 26 26 25 26 25 26 25 23 23 22 22 22 22 23 23 23 23 22 22 22 21 20 20 19 19 21 18 19 18 17 15 15 15 16 18
32 31 33 35 37 32 33 34 34 34 32 31 33 34 30 30 32 28 26 24 24 23 22 24 24 24 24 25 27 27 27 26 27 28 28 26 26 28 27 27 27 26 26 27 27 27 27 26 26 26 25 25 24 23 25 24 25 26 24 22 22 21 22 22 22 22 21 21 20 22 20 20 19 19 19 20 20 19 20 19 18 17 17 17 17 19
32 29 36 34 30 31 32 33 33 34 30 30 31 29 30 32 31 29 27 24 24 25 25 25 23 25 23 22 25 24 25 25 26 26 26 26 26 28 27 27 27 26 27 27 27 27 26 26 26 25 24 24 23 23 24 24 25 25 23 22 21 21 22 21 21 21 21 21 21 22 21 20 20 19 19 20 22 21 21 21 20 19 19 18 18 22
31 31 32 33 31 30 31 33 33 34 34 31 28 30 33 32 32 29 27 26 24 24 25 25 23 22 22 23 26 25 24 24 25 26 26 26 27 26 28 28 27 27 27 27 27 26 26 25 25 25 25 23 23 23 22 23 25 24 24 21 21 21 21 21 20 20 20 20 21 21 21 21 21 21 22 23 22 22 20 20 20 20 20 19 21 22
35 29 31 33 34 32 31 32 31 33 34 31 32 35 30 27 27 28 27 25 25 25 24 23 22 23 24 24 22 24 24 24 24 26 26 25 26 27 27 27 27 27 27 26 26 26 25 25 25 24 23 22 22 22 21 23 25 25 23 21 20 20 20 21 22 21 22 22 25 25 23 22 21 21 21 22 21 22 21 21 20 20 20 21 21 20
36 30 29 32 31 31 30 31 28 29 33 32 32 31 34 29 28 27 27 28 26 24 25 26 23 22 27 24 23 22 23 25 24 26 26 26 25 26 26 27 27 27 27 27 26 26 26 25 24 23 22 21 21 21 21 23 24 22 22 20 20 20 21 21 21 21 21 24 24 23 22 22 22 22 22 22 22 21 21 21 21 21 20 20 19 20
32 32 28 29 33 30 27 29 29 29 28 27 29 28 30 30 30 26 28 27 25 24 23 23 23 24 25 24 23 23 22 24 24 26 28 27 26 26 26 27 28 28 28 27 26 25 26 25 23 23 22 21 21 22 22 23 22 22 21 20 20 19 20 20 20 21 21 21 22 21 20 21 21 21 22 22 22 21 21 21 21 20 19 17 17 16
32 30 29 27 28 27 28 30 30 32 30 29 29 28 29 28 27 25 25 29 27 25 24 23 23 26 26 23 24 22 22 24 27 28 28 28 27 26 27 28 28 29 28 27 26 26 26 24 23 22 22 22 21 22 21 21 21 21 21 21 20 20 19 19 19 20 21 21 20 20 20 20 20 21 22 21 20 20 20 19 19 18 16 15 16 15
33 36 31 28 28 28 30 32 32 30 32 31 29 29 31 29 28 27 25 26 26 25 27 26 23 24 26 26 25 25 25 25 28 29 28 28 28 27 27 28 29 29 28 27 26 26 26 24 23 22 21 20 19 21 20 21 21 21 20 20 20 20 19 20 20 21 21 20 19 19 19 19 19 20 20 20 19 18 17 16 15 14 13 13 13 13
35 31 29 30 31 33 30 32 35 31 32 31 31 32 31 29 29 28 27 28 25 26 24 24 23 25 26 29 26 25 26 27 26 28 28 28 28 29 28 28 29 29 28 28 27 27 26 24 24 22 21 20 20 21 20 20 20 21 20 20 20 19 19 20 20 20 20 20 18 17 15 16 16 15 15 14 14 13 14 13 12 13 12 12 11 10
29 30 31 29 29 29 30 30 30 33 31 29 28 30 32 33 32 32 30 28 25 27 26 24 22 24 29 29 30 25 24 24 24 26 28 29 29 30 29 29 29 29 28 27 28 27 26 25 23 22 21 21 19 20 19 19 21 19 20 20 20 19 20 20 20 20 19 17 15 13 13 13 13 12 12 12 11 11 10 8 8 8 7 7 7 8
32 31 30 28 28 27 26 26 27 28 27 28 30 30 32 32 30 30 27 27 26 28 28 25 24 27 25 26 24 25 25 24 25 26 28 30 30 29 29 30 29 29 28 27 28 27 26 25 24 22 21 20 18 19 19 20 20 19 19 19 20 19 19 20 19 18 18 15 14 14 12 12 12 12 12 12 11 9 8 6 6 6 6 7 7 3
33 34 32 31 30 29 30 32 35 32 29 27 29 30 30 32 32 32 29 27 26 27 26 28 28 26 24 24 25 26 27 24 25 28 26 28 29 30 30 31 30 29 29 28 28 28 26 26 23 22 20 20 18 19 19 19 19 18 19 18 19 19 19 19 18 17 15 14 13 13 12 12 12 13 12 12 10 8 6 4 4 4 4 3 3 1
30 31 33 33 33 33 34 34 33 33 30 29 30 30 31 31 31 30 28 27 29 27 25 29 29 29 27 25 25 25 26 25 26 26 26 26 29 30 30 30 31 28 28 28 28 27 26 25 24 22 20 19 19 20 20 19 18 18 18 18 19 18 18 21 16 15 14 13 12 12 13 13 13 13 13 12 10 8 5 4 3 4 4 4 2 1
31 29 33 34 33 34 35 33 32 33 31 31 31 31 30 31 31 30 30 30 30 27 25 30 30 29 28 26 27 26 26 25 26 26 26 26 29 30 30 29 29 28 27 26 27 26 26 26 25 23 21 21 20 19 19 19 17 17 17 17 19 18 17 16 14 13 12 12 12 12 13 13 13 13 14 12 10 8 6 5 3 5 4 3 3 4
33 30 32 34 32 33 33 34 34 32 32 33 32 32 30 31 30 30 29 31 30 29 29 30 32 30 29 27 28 28 30 28 27 28 28 28 29 29 29 28 28 27 27 26 26 26 26 25 25 24 23 22 20 19 18 18 17 16 17 17 18 17 16 15 13 12 12 12 12 13 13 14 14 14 14 12 10 8 7 5 6 6 5 6 4 3
32 29 35 34 32 32 33 34 35 33 31 29 31 32 31 31 31 30 29 30 30 29 30 30 31 31 30 30 30 32 31 30 29 26 26 28 30 29 29 28 28 28 27 26 26 26 26 26 26 26 24 22 20 19 18 18 17 17 15 16 16 16 15 14 13 13 12 13 13 13 14 15 15 15 14 13 11 15 11 7 10 12 10 8 7 7
35 30 36 34 30 30 32 32 33 33 32 31 30 30 31 30 29 29 28 29 29 28 29 29 28 28 30 32 35 32 30 30 29 30 29 29 29 28 28 28 28 28 27 26 25 26 26 26 26 26 25 23 21 20 18 18 18 16 15 15 16 15 13 13 14 14 13 13 13 15 16 16 17 17 16 16 18 17 16 14 14 14 13 11 9 8
34 31 32 32 30 30 31 32 32 32 31 29 30 30 31 31 30 30 30 30 30 30 29 28 28 29 34 34 31 31 30 30 30 31 31 30 30 29 28 28 29 29 28 27 26 26 26 26 26 27 26 24 22 20 19 19 17 16 16 15 16 14 13 13 14 14 15 14 15 16 17 17 18 20 20 19 18 18 17 16 15 14 13 12 12 10
34 33 32 33 30 30 28 32 32 31 24 25 33 36 33 31 31 29 29 30 30 32 28 30 30 33 33 32 31 31 31 32 33 34 33 32 30 29 28 28 29 29 29 29 28 27 27 27 27 27 27 27 25 22 21 20 18 17 16 15 15 15 15 14 15 15 16 17 17 19 18 20 22 22 21 20 19 16 16 15 15 14 13 12 11 10
33 33 32 33 31 29 29 32 29 24 25 30 30 30 28 32 31 31 31 30 29 30 29 29 31 32 33 32 32 32 32 32 31 31 29 29 31 29 28 28 28 29 29 29 29 28 28 28 27 27 27 27 26 25 23 22 19 18 15 15 15 15 16 16 16 17 17 18 19 20 21 22 22 21 21 20 18 16 15 14 14 13 12 11 11 11
33 33 33 32 30 27 26 29 23 22 29 29 22 21 29 31 32 33 32 32 30 30 30 29 29 30 33 32 31 26 32 25 23 25 28 27 30 30 28 28 28 27 28 29 29 29 29 29 29 28 27 28 28 26 24 22 21 18 16 16 17 17 17 18 18 17 17 19 20 21 20 23 22 21 20 17 16 16 15 15 15 14 11 11 10 10
36 34 33 30 31 25 25 26 27 31 30 27 25 23 30 30 31 32 31 31 33 32 32 31 31 31 30 28 22 21 21 23 24 25 24 25 29 29 29 27 28 28 28 28 29 29 30 30 30 29 29 28 27 26 25 23 22 21 19 19 18 19 20 20 20 18 18 21 20 20 20 22 21 21 19 17 17 16 16 15 13 12 11 10 10 10
36 33 33 31 29 31 27 25 25 26 24 28 28 27 25 23 33 35 33 31 32 33 33 33 32 33 32 23 20 20 25 25 25 26 22 22 26 29 27 33 30 29 29 29 28 28 28 28 28 27 28 26 25 25 25 24 23 22 23 23 22 21 20 21 20 19 19 19 21 22 19 21 22 21 19 17 16 16 16 15 13 12 10 10 10 10
33 33 33 32 30 29 27 25 24 23 25 30 29 23 22 26 30 29 29 27 27 31 32 32 32 32 30 25 20 20 26 27 27 27 22 21 23 25 25 25 24 27 28 28 27 26 25 26 25 24 24 23 24 24 24 25 25 25 24 25 23 23 23 21 20 19 20 19 18 20 21 20 21 21 19 17 16 15 15 14 13 11 9 8 9 10
31 31 32 29 29 28 27 26 24 27 27 28 23 20 17 19 28 28 21 21 27 30 32 32 32 31 28 25 21 23 27 26 27 27 17 22 22 23 25 24 24 25 26 26 26 26 23 21 21 21 21 21 22 23 24 25 26 27 25 24 23 25 25 21 20 20 20 19 19 19 21 21 21 21 19 18 17 15 14 13 10 9 8 7 6 6
28 28 30 27 28 29 29 26 28 28 31 26 22 17 16 22 26 22 19 24 22 24 27 31 31 30 26 23 22 25 26 22 21 17 19 18 17 19 20 21 24 24 22 22 22 24 20 20 20 20 20 20 20 21 24 25 26 26 26 24 23 24 24 24 23 22 21 19 20 21 21 20 20 20 19 18 16 15 12 10 10 9 7 6 5 4
26 27 27 29 27 27 28 26 26 29 31 28 22 17 19 25 20 21 27 22 26 23 26 29 28 28 26 24 22 25 21 16 16 14 14 14 18 19 17 17 16 16 17 21 23 21 20 19 19 20 20 20 19 22 24 26 27 26 24 24 24 24 24 24 22 22 22 23 22 21 21 19 19 18 17 16 14 11 10 9 10 8 7 4 4 5
26 26 24 26 27 28 28 26 25 22 27 24 20 17 22 24 26 25 22 19 22 25 25 24 26 25 25 24 23 22 12 10 9 12 15 15 15 16 15 14 15 16 16 18 19 19 19 19 19 18 19 18 20 21 24 26 26 26 26 25 24 24 22 22 21 21 23 23 22 20 19 18 16 15 13 11 11 10 8 7 6 6 5 5 4 4
31 26 26 27 30 24 25 23 23 28 25 23 25 23 23 25 20 16 17 20 16 21 23 22 21 23 24 25 23 15 12 11 11 11 12 12 12 12 13 13 14 15 16 17 18 18 20 19 19 18 19 18 19 22 24 26 26 26 25 24 24 23 23 23 21 22 22 20 20 18 16 15 13 12 10 9 9 8 7 6 4 3 2 2 2 1
32 29 29 27 30 28 27 28 23 20 23 22 25 24 24 26 21 15 18 16 16 14 20 20 18 19 21 19 18 14 13 12 10 11 11 12 12 12 12 13 14 14 15 15 16 20 21 18 20 19 20 17 20 20 24 25 25 24 24 24 24 25 23 22 21 20 20 19 18 16 15 12 11 9 8 7 7 6 6 6 3 1 2 2 2 1
18 26 20 22 24 17 18 22 21 20 21 21 20 23 22 18 17 20 18 14 15 18 18 17 17 18 18 16 14 14 14 12 11 12 12 12 12 12 13 13 13 13 13 16 18 22 22 20 21 22 21 19 20 19 22 23 25 24 23 23 23 24 23 20 18 18 18 17 16 15 12 10 8 6 5 5 5 5 5 5 3 2 2 1 1 2
16 18 23 23 20 21 21 18 18 19 20 21 19 19 16 16 18 17 16 18 15 14 15 15 13 16 17 17 14 12 13 13 12 12 13 13 13 13 12 13 12 14 15 18 16 23 23 22 21 22 23 23 21 21 20 21 23 25 23 21 23 22 20 18 17 16 16 16 15 12 10 8 6 4 3 3 2 2 3 3 2 2 3 2 1 2
23 16 18 21 16 19 18 14 14 12 13 16 21 19 17 19 15 14 17 14 13 13 14 14 16 18 20 20 15 10 10 12 13 12 13 14 14 14 14 15 14 15 16 19 19 24 23 23 23 23 23 22 22 21 20 21 21 22 23 19 21 19 17 16 16 16 16 15 13 10 8 7 5 4 2 1 2 1 1 2 3 2 3 3 3 3
20 21 20 19 17 9 10 11 12 10 10 16 16 16 20 21 16 15 14 15 14 12 14 14 13 14 16 15 15 12 11 13 14 14 13 14 15 13 15 15 17 17 18 20 22 23 22 22 23 23 23 23 23 24 22 20 20 20 20 20 17 16 16 15 14 14 14 13 10 9 6 5 6 4 3 1 1 1 2 2 2 2 3 4 4 4
16 19 15 15 17 15 16 11 11 15 15 13 15 16 16 19 16 16 16 15 16 14 15 15 15 13 15 15 15 16 19 15 14 14 18 15 14 16 16 16 17 20 19 21 22 22 22 22 23 23 23 23 24 24 23 22 21 20 20 19 16 14 15 14 13 12 13 12 10 9 5 4 4 3 3 2 0 0 1 2 7 5 2 2 7 9
16 17 12 16 18 17 12 12 12 16 11 20 16 16 16 17 17 17 16 17 17 17 16 16 16 15 14 16 15 18 17 16 16 16 17 16 15 16 16 17 18 18 19 20 21 22 21 21 22 22 22 23 22 23 23 22 21 19 18 17 15 14 14 13 12 12 12 11 9 8 6 4 4 4 3 3 1 1 -0 -1 3 11 12 9 7 10